Skip Page Navigation
NASA JPL Caltech
NASA Logo - Jet Propulsion Laboratory + View the NASA Portal
+ Near-Earth Object (NEO) Program
Search JPL
JPL Home Earth Solar System Stars & Galaxies Technology
JPL Solar System Dynamics
BODIES ORBITS EPHEMERIDES TOOLS PHYSICAL DATA DISCOVERY FAQ SITE MAP
JPL Small-Body Database Browser
Search: [ help ]  
47129 (1999 CR118)
Classification: Main-belt Asteroid          SPK-ID: 2047129
Ephemeris | Orbit Diagram | Orbital Elements | Physical Parameters | Discovery Circumstances | Close-Approach Data ]

[ show orbit diagram ]
Orbital Elements at Epoch 2457000.5 (2014-Dec-09.0) TDB
Reference: JPL 12 (heliocentric ecliptic J2000)
 Element Value Uncertainty (1-sigma)   Units 
e .1097092370365756 6.1957e-08  
a 2.977922897725798 3.2586e-08 AU
q 2.651217248662553 1.7757e-07 AU
i 10.01898705164237 7.5271e-06 deg
node 12.034177012532 3.8537e-05 deg
peri 50.1711195001643 5.6606e-05 deg
M 103.9203020028914 3.7823e-05 deg
tp 2456458.665692482948
(2013-Jun-15.16569248)
0.00019769 JED
period 1877.018705168039
5.14
3.0809e-05
8.435e-08
d
yr
n .1917935069100823 3.1481e-09 deg/d
Q 3.304628546789043 3.6161e-08 AU
  Orbit Determination Parameters
   # obs. used (total)      678  
   data-arc span      7657 days (20.96 yr)  
   first obs. used      1994-02-08  
   last obs. used      2015-01-26  
   planetary ephem.      DE431  
   SB-pert. ephem.      SB431-BIG16  
   condition code      0  
   fit RMS      .56247  
   data source      ORB  
   producer      Otto Matic  
   solution date      2015-Feb-04 15:01:02  

Additional Information
 Earth MOID = 1.67567 AU 
 T_jup = 3.228 
[ show covariance matrix ]

Ephemeris | Orbit Diagram | Orbital Elements | Physical Parameters | Discovery Circumstances | Close-Approach Data ]

Physical Parameter Table
Parameter Symbol Value Units Sigma Reference Notes
absolute magnitude H 14.0 mag n/a MPO324731  

47129 (1999 CR118)          Discovered 1999-Feb-09 by BAO Schmidt CCD Asteroid Program at Xinglong
Reference: 20020921/Numbers.arcLast Updated: 2004-04-19

[ show close-approach data ]
Alternate Designations
 1999 CR118 = 1994 CN14 
Ephemeris | Orbit Diagram | Orbital Elements | Physical Parameters | Discovery Circumstances | Close-Approach Data ]
ABOUT SSD CREDITS/AWARDS PRIVACY/COPYRIGHT GLOSSARY LINKS
FirstGov 2015-Mar-29 09:21 UT
(server date/time)  
NASA Home Page
Site Manager:   Ryan S. Park
Webmaster  Alan B. Chamberlin